Regional Weather Roundup
Issued by NWS

Home | Current Version | Previous Version | Text Only | Print | Product List | Glossary Off
Versions: 1 2 3 4 5 6 7 8 9 10 11 12 13 14 15 16 17 18 19 20 21 22 23 24 25 26 27 28 29 30 31 32 33 34 35 36 37 38 39 40 41 42 43 44 45 46 47 48 49 50

000
ASUS43 KLOT 212008
RWRIL

ILLINOIS REGIONAL WEATHER ROUNDUP
NATIONAL WEATHER SERVICE CHICAGO/ROMEOVILLE IL
200 PM CST SUN JAN 21 2018

NOTE: "FAIR" INDICATES FEW OR NO CLOUDS BELOW 12,000 FEET WITH NO
SIGNIFICANT WEATHER AND/OR OBSTRUCTIONS TO VISIBILITY.

* THESE STATIONS ARE NOT UNDER NWS QUALITY CONTROL. THEY ALSO MAY NOT
  REPORT WEATHER SUCH AS PRECIPITATION OR FOG.

ILZ001-002-007-009-015-016-024-212100-
NORTHWEST ILLINOIS

CITY           SKY/WX    TMP DP  RH WIND       PRES   REMARKS
MOLINE         FOG       45  43  93 E8        29.82F VSB 1
STERLING*      CLOUDY    42  42 100 E7        29.86F FOG
SAVANNA*       CLOUDY    41  39  93 E6        29.86F FOG
$$

ILZ003-004-008-010-011-017-018-212100-
NORTH CENTRAL ILLINOIS

CITY           SKY/WX    TMP DP  RH WIND       PRES   REMARKS
ROCKFORD       DRIZZLE   39  38  96 E5        29.89F FOG
FREEPORT*      CLOUDY    38  37  96 E7        29.89F FOG     WCI  33
ROCHELLE*      FOG       41  40  99 E6        29.88F VSB 1/2
DE KALB*       FOG       40  40 100 E5        29.89S VSB<1/4
PERU*          FOG       44  43  97 SE6       29.87F VSB 3/4
$$

ILZ005-006-012>014-019>023-212100-
NORTHEAST ILLINOIS

CITY           SKY/WX    TMP DP  RH WIND       PRES   REMARKS
CHICAGO-OHARE  CLOUDY    44  41  89 CALM      29.89F FOG
CHICAGO-MIDWAY CLOUDY    45  45 100 CALM      29.90F FOG
AURORA         FOG       42  42 100 NE5       29.89F VSB<1/4
LANSING*       CLOUDY    45  45 100 S6        29.91S FOG
JOLIET*        CLOUDY    46  46  97 S3        29.89F FOG
WAUKEGAN       CLOUDY    38  37  97 CALM      29.90F FOG
DUPAGE AIRPORT FOG       42  42 100 E3        29.88F VSB 3/4
KANKAKEE*      FOG      N/A N/A N/A SE5       29.91F VSB 1/4
WHEELING       CLOUDY    44  41  89 NE3       29.91F FOG
MORRIS*        CLOUDY    45  44  98 S6        29.88S FOG
ROMEOVILLE*    CLOUDY    44  44 100 S5        29.89S FOG
NORTHERLY ISL    N/A     35  34  96 NW2         N/A
$$

LMZ740>746-212100-
SOUTHERN LAKE MICHIGAN

STATION/POSITION SKY/WX   TEMP    WIND        PRES    VSBY  WAVE
                          AIR SEA DIR/SP/G                  HT/PER
                          (F)     (DEG/KT/KT) (MB)    (MI)  (FT/S)
HARRISON CRIB              38     120/ 10/ 10   N/A
BURNHAM HARBOR             36      CALM  /  2   N/A
CALUMET HARBOR             37      30/  2/  3 1012.1F
BURNS HARBOR               43     190/  8/ 12 1013.5F
MICHIGAN CITY              42     150/  9/ 10   N/A
$$

ILZ025>027-034>036-040-047-049-050-058-095>099-212100-
WEST-CENTRAL ILLINOIS

CITY           SKY/WX    TMP DP  RH WIND       PRES   REMARKS
QUINCY         CLOUDY    62  52  69 S9        29.79F
GALESBURG*     CLOUDY    48  46  93 E7        29.83F
MACOMB*        CLOUDY    53  50  90 S9        29.83F
JACKSONVILLE*  MOSUNNY   63  53  69 S9        29.83F
PITTSFIELD*    CLOUDY    66  54  66 S9        29.82F
$$

ILZ028>032-037-038-041>044-048-051>054-059>061-212100-
CENTRAL ILLINOIS

CITY           SKY/WX    TMP DP  RH WIND       PRES   REMARKS
PONTIAC        FOG       46  46  98 SE5       29.88F VSB<1/4
BLOOMINGTON    LGT RAIN  50  49  96 S12       29.87F VSB 1/4
DECATUR        CLOUDY    56  54  93 S15       29.88F
PEORIA         CLOUDY    50  47  89 E5        29.84F FOG
LACON*         CLOUDY    47  46  98 SE5       29.85F FOG
LINCOLN*       CLOUDY    58  55  89 S10       29.86F
SPRINGFIELD    PTSUNNY   61  54  77 S18       29.85F
TAYLORVILLE    CLOUDY    56  53  90 S15       29.88F
$$

ILZ033-039-045-046-055>057-062-063-212100-
EAST-CENTRAL ILLINOIS

CITY           SKY/WX    TMP DP  RH WIND       PRES   REMARKS
CHAMPAIGN      FOG       50  50 100 S15       29.90F VSB 3/4
DANVILLE*      FOG       47  47 100 S10       29.90F VSB 1/4
RANTOUL*       DRZL/FOG  50  49  99 S8        29.90F VSB 1/4
MATTOON        FOG       49  49 100 S9        29.92F VSB<1/4
PARIS*         FOG       48  48 100 S13       29.94F VSB 3/4
$$

ILZ079-100>102-212100-
SOUTHWEST ILLINOIS

CITY           SKY/WX    TMP DP  RH WIND       PRES   REMARKS
ALTON          PTSUNNY   61  55  82 S13G20    29.85F
BELLEVILLE     CLOUDY    60  53  77 S16       29.86F
CAHOKIA*       CLOUDY    65  54  67 S10       29.85F
SPARTA*        CLOUDY    53  53 100 S13G18    29.92F
$$

ILZ064>066-069>071-074>076-080>082-084>086-088>090-092>094-212100-
SOUTH-CENTRAL ILLINOIS

CITY           SKY/WX    TMP DP  RH WIND       PRES   REMARKS
CARBONDALE     CLOUDY    54  53  97 S20       29.94F
CAIRO*         CLOUDY    54  51  91 S6        29.99F
EFFINGHAM*     FOG       50  50 100 SE8       29.95F VSB 1/4
MARION         CLOUDY    54  52  94 S17       29.97F FOG
MT. VERNON     CLOUDY    53  52  96 S12       29.94F FOG
CENTRALIA*     CLOUDY    55  54  97 S9        29.92F FOG
SALEM*         CLOUDY    54  52  94 S8        29.93F FOG
METROPOLIS*    CLOUDY    56  52  86 S7        30.01F
$$

ILZ067-068-072-073-078-083-087-091-212100-
SOUTHEAST ILLINOIS

CITY           SKY/WX    TMP DP  RH WIND       PRES   REMARKS
LAWRENCEVILLE  FOG       48  47  96 S14       29.98F VSB 3/4
FLORA*         FOG       51  51  98 S8        29.96F VSB 1/4
FAIRFIELD*     CLOUDY    51  51 100 S8        29.95F FOG
HARRISBURG*    CLOUDY    55  54  95 S14G20    29.98F
ROBINSON*      CLOUDY    48  48 100 S8        29.97F FOG
CARMI*         CLOUDY    48  48  98 S10       29.98F FOG
$$

ABBREVIATIONS USED IN REMARKS
   TC - TEMPERATURE IN CELSIUS
  WCI - WIND CHILL INDEX
   HX - HEAT INDEX
  VSB - VISIBILITY
$$




USA.gov is the U.S. government's official web portal to all federal, state and local government web resources and services.